Time,TemperatureF,DewpointF,PressureIn,WindDirection,WindDirectionDegrees,WindSpeedMPH,WindSpeedGustMPH,Humidity,HourlyPrecipIn,Conditions,Clouds,dailyrainin,SoftwareType,DateUTC
2013-11-29 00:00:00,55.1,48.0,30.34,NNW,338,0.0,1.1,77,0.00,,,0.00,WUHU216HW,2013-11-29 05:00:00,
2013-11-29 00:01:00,55.1,48.0,30.34,NNW,338,0.4,1.1,77,0.00,,,0.00,WUHU216HW,2013-11-29 05:01:00,
2013-11-29 00:06:00,55.1,48.3,30.34,West,270,1.3,1.3,78,0.00,,,0.00,WUHU216HW,2013-11-29 05:06:00,
2013-11-29 00:11:00,55.1,48.0,30.33,North,0,0.0,1.3,77,0.00,,,0.00,WUHU216HW,2013-11-29 05:11:00,
2013-11-29 00:16:00,55.1,48.0,30.33,NNE,23,0.0,1.3,77,0.00,,,0.00,WUHU216HW,2013-11-29 05:16:00,
2013-11-29 00:21:00,55.1,48.0,30.33,East,90,1.1,1.1,77,0.00,,,0.00,WUHU216HW,2013-11-29 05:21:00,
2013-11-29 00:26:00,55.1,48.0,30.33,NNW,338,0.2,1.1,77,0.00,,,0.00,WUHU216HW,2013-11-29 05:26:00,
2013-11-29 00:31:00,55.1,48.0,30.33,WSW,248,0.0,1.1,77,0.00,,,0.00,WUHU216HW,2013-11-29 05:31:00,
2013-11-29 00:36:00,55.1,48.0,30.33,ENE,68,0.0,1.1,77,0.00,,,0.00,WUHU216HW,2013-11-29 05:36:00,
2013-11-29 00:41:00,55.1,48.0,30.33,NE,45,0.0,1.1,77,0.00,,,0.00,WUHU216HW,2013-11-29 05:41:00,
2013-11-29 00:46:00,55.1,48.0,30.33,NE,45,0.0,1.1,77,0.00,,,0.00,WUHU216HW,2013-11-29 05:46:00,
2013-11-29 00:51:00,54.9,48.2,30.33,NNE,23,0.0,1.8,78,0.00,,,0.00,WUHU216HW,2013-11-29 05:51:00,
2013-11-29 00:56:00,54.7,48.0,30.32,NNW,338,0.2,1.8,78,0.00,,,0.00,WUHU216HW,2013-11-29 05:56:00,
2013-11-29 01:01:00,54.7,48.0,30.33,NNW,338,0.4,0.9,78,0.00,,,0.00,WUHU216HW,2013-11-29 06:01:00,
2013-11-29 01:06:00,54.7,48.0,30.33,NE,45,0.0,0.9,78,0.00,,,0.00,WUHU216HW,2013-11-29 06:06:00,
2013-11-29 01:11:00,54.7,48.0,30.33,North,0,0.0,0.7,78,0.00,,,0.00,WUHU216HW,2013-11-29 06:11:00,
2013-11-29 01:16:00,54.5,47.8,30.32,NNW,338,0.0,1.1,78,0.00,,,0.00,WUHU216HW,2013-11-29 06:16:00,
2013-11-29 01:21:00,54.5,48.2,30.33,NNW,338,0.9,1.1,79,0.00,,,0.00,WUHU216HW,2013-11-29 06:21:00,
2013-11-29 01:26:00,54.5,48.2,30.33,NNE,23,0.0,0.9,79,0.00,,,0.00,WUHU216HW,2013-11-29 06:26:00,
2013-11-29 01:31:00,54.5,48.2,30.33,NNW,338,0.0,0.9,79,0.00,,,0.00,WUHU216HW,2013-11-29 06:31:00,
2013-11-29 01:36:00,54.4,47.6,30.32,NE,45,0.2,1.3,78,0.00,,,0.00,WUHU216HW,2013-11-29 06:36:00,
2013-11-29 01:41:00,54.4,47.6,30.32,NNW,338,1.3,1.6,78,0.00,,,0.00,WUHU216HW,2013-11-29 06:41:00,
2013-11-29 01:46:00,54.4,47.6,30.32,NNE,23,0.7,2.0,78,0.00,,,0.00,WUHU216HW,2013-11-29 06:46:00,
2013-11-29 01:51:00,54.2,47.5,30.31,SSE,158,0.0,2.0,78,0.00,,,0.00,WUHU216HW,2013-11-29 06:51:00,
2013-11-29 01:56:00,54.4,47.6,30.31,NNE,23,0.0,0.9,78,0.00,,,0.00,WUHU216HW,2013-11-29 06:56:00,
2013-11-29 02:01:00,54.4,47.6,30.31,North,0,0.0,0.9,78,0.00,,,0.00,WUHU216HW,2013-11-29 07:01:00,
2013-11-29 02:06:00,54.4,47.6,30.31,NNE,23,0.0,1.3,78,0.00,,,0.00,WUHU216HW,2013-11-29 07:06:00,
2013-11-29 02:11:00,54.2,47.5,30.31,North,0,0.0,1.3,78,0.00,,,0.00,WUHU216HW,2013-11-29 07:11:00,
2013-11-29 02:16:00,54.2,47.5,30.31,North,0,0.0,0.9,78,0.00,,,0.00,WUHU216HW,2013-11-29 07:16:00,
2013-11-29 02:21:00,54.2,47.8,30.31,North,0,0.4,0.9,79,0.00,,,0.00,WUHU216HW,2013-11-29 07:21:00,
2013-11-29 02:26:00,54.2,47.5,30.31,NE,45,0.0,0.9,78,0.00,,,0.00,WUHU216HW,2013-11-29 07:26:00,
2013-11-29 02:31:00,54.0,47.7,30.31,North,0,0.0,0.7,79,0.00,,,0.00,WUHU216HW,2013-11-29 07:31:00,
2013-11-29 02:36:00,54.2,47.8,30.31,NE,45,0.0,0.9,79,0.00,,,0.00,WUHU216HW,2013-11-29 07:36:00,
2013-11-29 02:41:00,54.2,47.8,30.31,East,90,0.4,0.9,79,0.00,,,0.00,WUHU216HW,2013-11-29 07:41:00,
2013-11-29 02:46:00,54.2,47.8,30.31,North,0,0.2,0.9,79,0.00,,,0.00,WUHU216HW,2013-11-29 07:46:00,
2013-11-29 02:51:00,54.2,47.8,30.31,SSE,158,0.9,0.9,79,0.00,,,0.00,WUHU216HW,2013-11-29 07:51:00,
2013-11-29 02:56:00,54.0,47.7,30.31,NNW,338,0.0,2.0,79,0.00,,,0.00,WUHU216HW,2013-11-29 07:56:00,
2013-11-29 03:01:00,54.0,48.1,30.31,NE,45,0.2,2.2,80,0.00,,,0.00,WUHU216HW,2013-11-29 08:01:00,
2013-11-29 03:06:00,54.0,48.1,30.31,NNW,338,0.7,2.2,80,0.00,,,0.00,WUHU216HW,2013-11-29 08:06:00,
2013-11-29 03:11:00,54.0,48.1,30.31,NE,45,0.0,2.0,80,0.00,,,0.00,WUHU216HW,2013-11-29 08:11:00,
2013-11-29 03:16:00,54.0,48.1,30.31,East,90,0.2,2.0,80,0.00,,,0.00,WUHU216HW,2013-11-29 08:16:00,
2013-11-29 03:21:00,54.0,48.1,30.31,SSE,158,1.3,2.0,80,0.00,,,0.00,WUHU216HW,2013-11-29 08:21:00,
2013-11-29 03:26:00,54.0,48.1,30.31,NE,45,1.8,2.0,80,0.00,,,0.00,WUHU216HW,2013-11-29 08:26:00,
2013-11-29 03:31:00,54.0,48.1,30.31,NNE,23,0.2,2.5,80,0.00,,,0.00,WUHU216HW,2013-11-29 08:31:00,
2013-11-29 03:36:00,54.0,48.1,30.31,NE,45,0.0,2.5,80,0.00,,,0.00,WUHU216HW,2013-11-29 08:36:00,
2013-11-29 03:41:00,54.0,48.1,30.31,North,0,0.2,0.7,80,0.00,,,0.00,WUHU216HW,2013-11-29 08:41:00,
2013-11-29 03:46:00,54.0,48.1,30.30,North,0,0.4,1.6,80,0.00,,,0.00,WUHU216HW,2013-11-29 08:46:00,
2013-11-29 03:51:00,54.0,48.1,30.31,North,0,0.0,1.6,80,0.00,,,0.00,WUHU216HW,2013-11-29 08:51:00,
2013-11-29 03:56:00,54.0,48.1,30.30,WNW,293,0.4,1.1,80,0.00,,,0.00,WUHU216HW,2013-11-29 08:56:00,
2013-11-29 04:01:00,54.0,48.1,30.30,ESE,113,0.2,1.1,80,0.00,,,0.00,WUHU216HW,2013-11-29 09:01:00,
2013-11-29 04:06:00,54.2,48.5,30.30,NE,45,0.0,1.1,81,0.00,,,0.00,WUHU216HW,2013-11-29 09:06:00,
2013-11-29 04:11:00,54.2,48.5,30.30,North,0,0.7,1.8,81,0.00,,,0.00,WUHU216HW,2013-11-29 09:11:00,
2013-11-29 04:16:00,54.2,48.5,30.30,NNW,338,0.0,1.8,81,0.00,,,0.00,WUHU216HW,2013-11-29 09:16:00,
2013-11-29 04:21:00,54.2,48.5,30.30,NE,45,0.0,1.8,81,0.00,,,0.00,WUHU216HW,2013-11-29 09:21:00,
2013-11-29 04:26:00,54.2,48.5,30.30,North,0,0.0,3.6,81,0.00,,,0.00,WUHU216HW,2013-11-29 09:26:00,
2013-11-29 04:31:00,54.2,48.8,30.30,East,90,0.9,3.6,82,0.00,,,0.00,WUHU216HW,2013-11-29 09:31:00,
2013-11-29 04:36:00,54.0,48.3,30.30,West,270,0.4,1.8,81,0.00,,,0.00,WUHU216HW,2013-11-29 09:36:00,
2013-11-29 04:41:00,54.2,48.5,30.30,ENE,68,0.2,2.0,81,0.00,,,0.00,WUHU216HW,2013-11-29 09:41:00,
2013-11-29 04:46:00,54.2,48.5,30.30,North,0,0.2,2.0,81,0.00,,,0.00,WUHU216HW,2013-11-29 09:46:00,
2013-11-29 04:51:00,54.2,48.8,30.30,SE,135,0.4,1.3,82,0.00,,,0.00,WUHU216HW,2013-11-29 09:51:00,
2013-11-29 04:56:00,54.2,48.5,30.31,North,0,0.0,1.3,81,0.00,,,0.00,WUHU216HW,2013-11-29 09:56:00,
2013-11-29 05:01:00,54.2,48.5,30.31,North,0,0.0,1.1,81,0.00,,,0.00,WUHU216HW,2013-11-29 10:01:00,
2013-11-29 05:06:00,54.2,48.5,30.31,NNE,23,0.4,1.3,81,0.00,,,0.00,WUHU216HW,2013-11-29 10:06:00,
2013-11-29 05:11:00,54.2,48.5,30.31,NNW,338,0.2,1.3,81,0.00,,,0.00,WUHU216HW,2013-11-29 10:11:00,
2013-11-29 05:16:00,54.2,48.8,30.31,North,0,0.2,1.3,82,0.00,,,0.00,WUHU216HW,2013-11-29 10:16:00,
2013-11-29 05:21:00,54.2,48.8,30.31,North,0,0.2,1.3,82,0.00,,,0.00,WUHU216HW,2013-11-29 10:21:00,
2013-11-29 05:26:00,54.2,48.8,30.31,North,0,0.0,0.7,82,0.00,,,0.00,WUHU216HW,2013-11-29 10:26:00,
2013-11-29 05:31:00,54.2,48.8,30.31,East,90,0.7,0.7,82,0.00,,,0.00,WUHU216HW,2013-11-29 10:31:00,
2013-11-29 05:36:00,54.2,48.8,30.31,ESE,113,0.7,1.1,82,0.00,,,0.00,WUHU216HW,2013-11-29 10:36:00,
2013-11-29 05:41:00,54.2,48.8,30.31,NNE,23,0.0,2.2,82,0.00,,,0.00,WUHU216HW,2013-11-29 10:41:00,
2013-11-29 05:46:00,54.2,48.8,30.31,NNE,23,0.0,2.5,82,0.00,,,0.00,WUHU216HW,2013-11-29 10:46:00,
2013-11-29 05:51:00,54.2,48.8,30.31,ENE,68,0.2,2.5,82,0.00,,,0.00,WUHU216HW,2013-11-29 10:51:00,
2013-11-29 05:56:00,54.4,49.0,30.31,ENE,68,0.4,1.6,82,0.00,,,0.00,WUHU216HW,2013-11-29 10:56:00,
2013-11-29 06:01:00,54.4,49.0,30.32,North,0,0.4,1.6,82,0.00,,,0.00,WUHU216HW,2013-11-29 11:01:00,
2013-11-29 06:06:00,54.4,49.0,30.32,NE,45,0.9,0.9,82,0.00,,,0.00,WUHU216HW,2013-11-29 11:06:00,
2013-11-29 06:11:00,54.4,49.0,30.32,NNE,23,1.1,2.0,82,0.00,,,0.00,WUHU216HW,2013-11-29 11:11:00,
2013-11-29 06:16:00,54.4,49.0,30.32,NW,315,0.0,2.0,82,0.00,,,0.00,WUHU216HW,2013-11-29 11:16:00,
2013-11-29 06:21:00,54.4,49.3,30.32,NE,45,0.9,2.7,83,0.00,,,0.00,WUHU216HW,2013-11-29 11:21:00,
2013-11-29 06:26:00,54.4,49.0,30.32,NNE,23,0.0,2.7,82,0.00,,,0.00,WUHU216HW,2013-11-29 11:26:00,
2013-11-29 06:31:00,54.4,49.0,30.32,North,0,1.6,1.8,82,0.00,,,0.00,WUHU216HW,2013-11-29 11:31:00,
2013-11-29 06:36:00,54.4,49.0,30.33,NNE,23,0.0,1.8,82,0.00,,,0.00,WUHU216HW,2013-11-29 11:36:00,
2013-11-29 06:41:00,54.4,49.0,30.33,ESE,113,0.4,1.8,82,0.00,,,0.00,WUHU216HW,2013-11-29 11:41:00,
2013-11-29 06:46:00,54.4,49.0,30.33,NNE,23,0.2,1.1,82,0.00,,,0.00,WUHU216HW,2013-11-29 11:46:00,
2013-11-29 06:51:00,54.4,49.0,30.33,East,90,1.3,1.3,82,0.00,,,0.00,WUHU216HW,2013-11-29 11:51:00,
2013-11-29 06:56:00,54.4,49.0,30.33,North,0,1.1,1.3,82,0.00,,,0.00,WUHU216HW,2013-11-29 11:56:00,
2013-11-29 07:01:00,54.4,49.0,30.33,NNE,23,0.0,1.3,82,0.00,,,0.00,WUHU216HW,2013-11-29 12:01:00,
2013-11-29 07:06:00,54.4,49.0,30.33,ENE,68,0.9,1.1,82,0.00,,,0.00,WUHU216HW,2013-11-29 12:06:00,
2013-11-29 07:11:00,54.4,49.0,30.33,ENE,68,0.0,1.1,82,0.00,,,0.00,WUHU216HW,2013-11-29 12:11:00,
2013-11-29 07:16:00,54.5,49.1,30.34,ENE,68,0.0,1.1,82,0.00,,,0.00,WUHU216HW,2013-11-29 12:16:00,
2013-11-29 07:21:00,54.5,49.1,30.34,North,0,0.0,1.1,82,0.00,,,0.00,WUHU216HW,2013-11-29 12:21:00,
2013-11-29 07:26:00,54.7,49.3,30.34,ENE,68,0.4,1.1,82,0.00,,,0.00,WUHU216HW,2013-11-29 12:26:00,
2013-11-29 07:31:00,54.7,49.6,30.34,NNE,23,0.2,1.1,83,0.00,,,0.00,WUHU216HW,2013-11-29 12:31:00,
2013-11-29 07:36:00,54.9,49.8,30.34,NNE,23,0.4,1.8,83,0.00,,,0.00,WUHU216HW,2013-11-29 12:36:00,
2013-11-29 07:41:00,55.1,50.0,30.34,North,0,0.0,1.8,83,0.00,,,0.00,WUHU216HW,2013-11-29 12:41:00,
2013-11-29 07:46:00,55.3,50.1,30.35,North,0,0.2,1.1,83,0.00,,,0.00,WUHU216HW,2013-11-29 12:46:00,
2013-11-29 07:51:00,55.4,50.3,30.35,North,0,0.7,1.1,83,0.00,,,0.00,WUHU216HW,2013-11-29 12:51:00,
2013-11-29 07:56:00,55.8,50.3,30.35,North,0,0.0,1.1,82,0.00,,,0.00,WUHU216HW,2013-11-29 12:56:00,
2013-11-29 08:01:00,56.2,50.7,30.35,East,90,0.2,2.0,82,0.00,,,0.00,WUHU216HW,2013-11-29 13:01:00,
2013-11-29 08:06:00,56.3,51.2,30.35,NE,45,0.4,2.0,83,0.00,,,0.00,WUHU216HW,2013-11-29 13:06:00,
2013-11-29 08:11:00,56.5,51.4,30.35,WSW,248,1.1,2.5,83,0.00,,,0.00,WUHU216HW,2013-11-29 13:11:00,
2013-11-29 08:16:00,56.9,51.8,30.35,NNE,23,0.4,2.5,83,0.00,,,0.00,WUHU216HW,2013-11-29 13:16:00,
2013-11-29 08:21:00,57.1,51.9,30.35,ENE,68,1.1,1.1,83,0.00,,,0.00,WUHU216HW,2013-11-29 13:21:00,
2013-11-29 08:26:00,57.2,52.1,30.35,North,0,0.9,1.1,83,0.00,,,0.00,WUHU216HW,2013-11-29 13:26:00,
2013-11-29 08:31:00,57.8,52.7,30.35,ENE,68,0.9,1.8,83,0.00,,,0.00,WUHU216HW,2013-11-29 13:31:00,
2013-11-29 08:36:00,58.1,53.0,30.35,NE,45,0.9,1.8,83,0.00,,,0.00,WUHU216HW,2013-11-29 13:36:00,
2013-11-29 08:41:00,58.7,53.2,30.35,NNE,23,0.7,2.9,82,0.00,,,0.00,WUHU216HW,2013-11-29 13:41:00,
2013-11-29 08:46:00,58.9,53.1,30.35,North,0,0.2,2.9,81,0.00,,,0.00,WUHU216HW,2013-11-29 13:46:00,
2013-11-29 08:51:00,59.2,53.5,30.35,NNE,23,0.4,1.8,81,0.00,,,0.00,WUHU216HW,2013-11-29 13:51:00,
2013-11-29 08:56:00,59.6,53.8,30.36,NNW,338,0.4,2.7,81,0.00,,,0.00,WUHU216HW,2013-11-29 13:56:00,
2013-11-29 09:01:00,60.1,53.6,30.36,ENE,68,2.0,2.7,79,0.00,,,0.00,WUHU216HW,2013-11-29 14:01:00,
2013-11-29 09:06:00,60.3,53.8,30.36,East,90,0.9,3.8,79,0.00,,,0.00,WUHU216HW,2013-11-29 14:06:00,
2013-11-29 09:11:00,60.5,54.0,30.36,NE,45,0.7,3.8,79,0.00,,,0.00,WUHU216HW,2013-11-29 14:11:00,
2013-11-29 09:16:00,60.5,54.0,30.36,ESE,113,0.4,2.7,79,0.00,,,0.00,WUHU216HW,2013-11-29 14:16:00,
2013-11-29 09:21:00,60.5,54.0,30.36,ENE,68,0.0,2.5,79,0.00,,,0.00,WUHU216HW,2013-11-29 14:21:00,
2013-11-29 09:26:00,60.7,54.2,30.36,NE,45,0.7,1.6,79,0.00,,,0.00,WUHU216HW,2013-11-29 14:26:00,
2013-11-29 09:31:00,60.8,54.0,30.36,East,90,0.4,2.2,78,0.00,,,0.00,WUHU216HW,2013-11-29 14:31:00,
2013-11-29 09:36:00,61.0,54.2,30.36,NNW,338,0.0,2.2,78,0.00,,,0.00,WUHU216HW,2013-11-29 14:36:00,
2013-11-29 09:41:00,61.2,54.4,30.36,ESE,113,1.1,1.8,78,0.00,,,0.00,WUHU216HW,2013-11-29 14:41:00,
2013-11-29 09:46:00,61.6,54.6,30.36,NNE,23,0.2,2.2,78,0.00,,,0.00,WUHU216HW,2013-11-29 14:46:00,
2013-11-29 09:51:00,61.6,54.3,30.36,NNE,23,0.4,2.2,77,0.00,,,0.00,WUHU216HW,2013-11-29 14:51:00,
2013-11-29 09:56:00,61.7,54.5,30.36,NNE,23,0.0,1.6,77,0.00,,,0.00,WUHU216HW,2013-11-29 14:56:00,
2013-11-29 10:01:00,61.9,54.6,30.36,North,0,0.4,1.1,77,0.00,,,0.00,WUHU216HW,2013-11-29 15:01:00,
2013-11-29 10:06:00,62.1,54.5,30.36,ENE,68,0.0,0.9,76,0.00,,,0.00,WUHU216HW,2013-11-29 15:06:00,
2013-11-29 10:11:00,62.1,54.5,30.36,North,0,0.0,1.1,76,0.00,,,0.00,WUHU216HW,2013-11-29 15:11:00,
2013-11-29 10:16:00,62.3,54.5,30.36,ENE,68,1.6,2.5,76,0.00,,,0.00,WUHU216HW,2013-11-29 15:16:00,
2013-11-29 10:21:00,62.5,54.7,30.36,ENE,68,0.0,2.5,76,0.00,,,0.00,WUHU216HW,2013-11-29 15:21:00,
2013-11-29 10:26:00,62.6,54.5,30.36,North,0,0.4,2.5,75,0.00,,,0.00,WUHU216HW,2013-11-29 15:26:00,
2013-11-29 10:31:00,62.8,55.1,30.36,NNW,338,0.2,2.5,76,0.00,,,0.00,WUHU216HW,2013-11-29 15:31:00,
2013-11-29 10:36:00,62.8,54.7,30.36,North,0,0.4,1.3,75,0.00,,,0.00,WUHU216HW,2013-11-29 15:36:00,
2013-11-29 10:41:00,63.0,54.9,30.36,NNE,23,0.4,1.3,75,0.00,,,0.00,WUHU216HW,2013-11-29 15:41:00,
2013-11-29 10:46:00,63.2,55.1,30.36,NNE,23,0.2,1.1,75,0.00,,,0.00,WUHU216HW,2013-11-29 15:46:00,
2013-11-29 10:51:00,63.4,55.3,30.36,North,0,1.8,1.8,75,0.00,,,0.00,WUHU216HW,2013-11-29 15:51:00,
2013-11-29 10:56:00,63.5,55.1,30.36,North,0,0.4,1.8,74,0.00,,,0.00,WUHU216HW,2013-11-29 15:56:00,
2013-11-29 11:01:00,63.7,55.3,30.36,NNE,23,0.7,1.8,74,0.00,,,0.00,WUHU216HW,2013-11-29 16:01:00,
2013-11-29 11:06:00,63.9,55.4,30.36,NNW,338,0.4,1.8,74,0.00,,,0.00,WUHU216HW,2013-11-29 16:06:00,
2013-11-29 11:11:00,64.1,55.6,30.35,NE,45,0.4,3.4,74,0.00,,,0.00,WUHU216HW,2013-11-29 16:11:00,
2013-11-29 11:16:00,64.4,56.0,30.35,NE,45,0.2,3.4,74,0.00,,,0.00,WUHU216HW,2013-11-29 16:16:00,
2013-11-29 11:21:00,64.6,55.8,30.35,NNE,23,0.0,3.1,73,0.00,,,0.00,WUHU216HW,2013-11-29 16:21:00,
2013-11-29 11:26:00,65.2,56.3,30.35,NNE,23,0.2,3.1,73,0.00,,,0.00,WUHU216HW,2013-11-29 16:26:00,
2013-11-29 11:31:00,65.5,56.3,30.35,NNW,338,0.4,1.8,72,0.00,,,0.00,WUHU216HW,2013-11-29 16:31:00,
2013-11-29 11:36:00,66.1,56.3,30.34,East,90,0.9,1.1,71,0.00,,,0.00,WUHU216HW,2013-11-29 16:36:00,
2013-11-29 11:41:00,66.1,56.0,30.34,West,270,0.7,3.6,70,0.00,,,0.00,WUHU216HW,2013-11-29 16:41:00,
2013-11-29 11:46:00,66.6,56.5,30.34,NNE,23,0.0,3.6,70,0.00,,,0.00,WUHU216HW,2013-11-29 16:46:00,
2013-11-29 11:51:00,67.0,56.4,30.34,East,90,0.9,1.8,69,0.00,,,0.00,WUHU216HW,2013-11-29 16:51:00,
2013-11-29 11:56:00,67.5,56.6,30.33,ENE,68,1.1,2.2,68,0.00,,,0.00,WUHU216HW,2013-11-29 16:56:00,
2013-11-29 12:01:00,67.9,56.5,30.33,NNE,23,1.8,2.2,67,0.00,,,0.00,WUHU216HW,2013-11-29 17:01:00,
2013-11-29 12:06:00,68.0,56.7,30.33,NW,315,1.1,2.0,67,0.00,,,0.00,WUHU216HW,2013-11-29 17:06:00,
2013-11-29 12:11:00,68.4,57.0,30.33,NNE,23,0.2,1.8,67,0.00,,,0.00,WUHU216HW,2013-11-29 17:11:00,
2013-11-29 12:16:00,68.8,57.3,30.33,ENE,68,0.9,3.1,67,0.00,,,0.00,WUHU216HW,2013-11-29 17:16:00,
2013-11-29 12:21:00,69.1,57.2,30.32,SE,135,1.1,3.4,66,0.00,,,0.00,WUHU216HW,2013-11-29 17:21:00,
2013-11-29 12:26:00,69.3,57.0,30.32,NNE,23,1.6,3.4,65,0.00,,,0.00,WUHU216HW,2013-11-29 17:26:00,
2013-11-29 12:31:00,69.3,56.6,30.32,NE,45,0.4,2.7,64,0.00,,,0.00,WUHU216HW,2013-11-29 17:31:00,
2013-11-29 12:36:00,69.5,56.8,30.31,East,90,0.7,2.5,64,0.00,,,0.00,WUHU216HW,2013-11-29 17:36:00,
2013-11-29 12:41:00,70.0,57.2,30.31,East,90,1.1,2.5,64,0.00,,,0.00,WUHU216HW,2013-11-29 17:41:00,
2013-11-29 12:46:00,70.2,57.1,30.31,NNW,338,0.4,2.7,63,0.00,,,0.00,WUHU216HW,2013-11-29 17:46:00,
2013-11-29 12:51:00,70.2,56.2,30.31,NE,45,1.3,3.1,61,0.00,,,0.00,WUHU216HW,2013-11-29 17:51:00,
2013-11-29 12:56:00,70.4,56.8,30.30,East,90,0.0,3.1,62,0.00,,,0.00,WUHU216HW,2013-11-29 17:56:00,
2013-11-29 13:01:00,70.6,57.0,30.30,West,270,0.4,2.0,62,0.00,,,0.00,WUHU216HW,2013-11-29 18:01:00,
2013-11-29 13:06:00,70.6,57.0,30.30,NNE,23,0.0,2.2,62,0.00,,,0.00,WUHU216HW,2013-11-29 18:06:00,
2013-11-29 13:11:00,70.7,57.1,30.30,East,90,1.1,2.2,62,0.00,,,0.00,WUHU216HW,2013-11-29 18:11:00,
2013-11-29 13:16:00,70.9,56.9,30.29,NNE,23,2.5,2.5,61,0.00,,,0.00,WUHU216HW,2013-11-29 18:16:00,
2013-11-29 13:21:00,70.9,56.9,30.29,SE,135,2.0,2.5,61,0.00,,,0.00,WUHU216HW,2013-11-29 18:21:00,
2013-11-29 13:26:00,70.6,56.1,30.29,NNW,338,0.4,2.5,60,0.00,,,0.00,WUHU216HW,2013-11-29 18:26:00,
2013-11-29 13:31:00,70.4,55.9,30.29,NNW,338,0.2,2.0,60,0.00,,,0.00,WUHU216HW,2013-11-29 18:31:00,
2013-11-29 13:36:00,70.6,56.1,30.29,North,0,0.4,1.8,60,0.00,,,0.00,WUHU216HW,2013-11-29 18:36:00,
2013-11-29 13:41:00,70.9,56.4,30.28,NE,45,0.4,1.8,60,0.00,,,0.00,WUHU216HW,2013-11-29 18:41:00,
2013-11-29 13:46:00,71.1,57.0,30.28,North,0,1.6,1.6,61,0.00,,,0.00,WUHU216HW,2013-11-29 18:46:00,
2013-11-29 13:51:00,71.5,56.9,30.28,North,0,0.9,1.8,60,0.00,,,0.00,WUHU216HW,2013-11-29 18:51:00,
2013-11-29 13:56:00,71.5,56.4,30.28,North,0,0.0,2.7,59,0.00,,,0.00,WUHU216HW,2013-11-29 18:56:00,
2013-11-29 14:01:00,71.8,56.3,30.28,North,0,1.1,2.9,58,0.00,,,0.00,WUHU216HW,2013-11-29 19:01:00,
2013-11-29 14:06:00,72.0,56.3,30.28,West,270,0.4,2.9,58,0.00,,,0.00,WUHU216HW,2013-11-29 19:06:00,
2013-11-29 14:11:00,72.2,56.1,30.28,SSE,158,0.9,2.5,57,0.00,,,0.00,WUHU216HW,2013-11-29 19:11:00,
2013-11-29 14:16:00,72.0,55.9,30.28,North,0,2.2,2.5,57,0.00,,,0.00,WUHU216HW,2013-11-29 19:16:00,
2013-11-29 14:21:00,71.8,56.3,30.28,NNW,338,0.2,2.2,58,0.00,,,0.00,WUHU216HW,2013-11-29 19:21:00,
2013-11-29 14:26:00,71.6,55.5,30.27,North,0,0.4,2.2,57,0.00,,,0.00,WUHU216HW,2013-11-29 19:26:00,
2013-11-29 14:31:00,71.5,55.4,30.27,SE,135,1.8,1.8,57,0.00,,,0.00,WUHU216HW,2013-11-29 19:31:00,
2013-11-29 14:36:00,71.3,55.7,30.27,NNE,23,1.6,1.8,58,0.00,,,0.00,WUHU216HW,2013-11-29 19:36:00,
2013-11-29 14:41:00,71.1,55.5,30.27,North,0,0.4,1.8,58,0.00,,,0.00,WUHU216HW,2013-11-29 19:41:00,
2013-11-29 14:46:00,71.3,55.7,30.27,NE,45,0.2,2.5,58,0.00,,,0.00,WUHU216HW,2013-11-29 19:46:00,
2013-11-29 14:51:00,71.3,55.3,30.27,NE,45,0.7,2.5,57,0.00,,,0.00,WUHU216HW,2013-11-29 19:51:00,
2013-11-29 14:56:00,71.1,55.1,30.27,NNW,338,2.0,2.0,57,0.00,,,0.00,WUHU216HW,2013-11-29 19:56:00,
2013-11-29 15:01:00,70.9,54.9,30.27,ESE,113,0.4,2.5,57,0.00,,,0.00,WUHU216HW,2013-11-29 20:01:00,
2013-11-29 15:06:00,70.7,54.7,30.27,SE,135,0.7,2.5,57,0.00,,,0.00,WUHU216HW,2013-11-29 20:06:00,
2013-11-29 15:11:00,70.9,54.9,30.27,North,0,1.8,2.5,57,0.00,,,0.00,WUHU216HW,2013-11-29 20:11:00,
2013-11-29 15:16:00,70.7,54.7,30.27,North,0,0.7,2.5,57,0.00,,,0.00,WUHU216HW,2013-11-29 20:16:00,
2013-11-29 15:21:00,70.7,54.7,30.27,NW,315,0.9,2.5,57,0.00,,,0.00,WUHU216HW,2013-11-29 20:21:00,
2013-11-29 15:26:00,70.7,55.3,30.27,NNW,338,0.4,2.5,58,0.00,,,0.00,WUHU216HW,2013-11-29 20:26:00,
2013-11-29 15:31:00,70.7,55.3,30.27,NNE,23,0.9,1.6,58,0.00,,,0.00,WUHU216HW,2013-11-29 20:31:00,
2013-11-29 15:36:00,70.7,55.3,30.27,NNW,338,0.0,3.1,58,0.00,,,0.00,WUHU216HW,2013-11-29 20:36:00,
2013-11-29 15:41:00,70.6,55.6,30.27,NNW,338,1.1,3.1,59,0.00,,,0.00,WUHU216HW,2013-11-29 20:41:00,
2013-11-29 15:46:00,70.6,54.5,30.27,North,0,0.4,1.8,57,0.00,,,0.00,WUHU216HW,2013-11-29 20:46:00,
2013-11-29 15:51:00,70.4,54.9,30.27,ENE,68,0.0,1.8,58,0.00,,,0.00,WUHU216HW,2013-11-29 20:51:00,
2013-11-29 15:56:00,70.2,54.7,30.27,NW,315,0.4,1.8,58,0.00,,,0.00,WUHU216HW,2013-11-29 20:56:00,
2013-11-29 16:01:00,70.2,54.7,30.27,WNW,293,0.7,1.8,58,0.00,,,0.00,WUHU216HW,2013-11-29 21:01:00,
2013-11-29 16:06:00,70.2,54.7,30.27,SSE,158,0.0,1.8,58,0.00,,,0.00,WUHU216HW,2013-11-29 21:06:00,
2013-11-29 16:11:00,70.2,54.7,30.27,NE,45,0.2,1.8,58,0.00,,,0.00,WUHU216HW,2013-11-29 21:11:00,
2013-11-29 16:16:00,69.8,54.9,30.27,NNE,23,0.0,1.1,59,0.00,,,0.00,WUHU216HW,2013-11-29 21:16:00,
2013-11-29 16:21:00,70.0,54.6,30.27,NNW,338,1.3,3.4,58,0.00,,,0.00,WUHU216HW,2013-11-29 21:21:00,
2013-11-29 16:26:00,70.0,54.6,30.27,NE,45,1.1,3.4,58,0.00,,,0.00,WUHU216HW,2013-11-29 21:26:00,
2013-11-29 16:31:00,69.8,54.9,30.27,NNE,23,0.0,2.5,59,0.00,,,0.00,WUHU216HW,2013-11-29 21:31:00,
2013-11-29 16:36:00,69.8,54.9,30.27,East,90,0.0,1.6,59,0.00,,,0.00,WUHU216HW,2013-11-29 21:36:00,
2013-11-29 16:41:00,69.8,54.9,30.27,SE,135,0.7,2.5,59,0.00,,,0.00,WUHU216HW,2013-11-29 21:41:00,
2013-11-29 16:46:00,69.7,55.3,30.27,SE,135,0.4,2.5,60,0.00,,,0.00,WUHU216HW,2013-11-29 21:46:00,
2013-11-29 16:51:00,69.5,55.1,30.27,NNW,338,0.9,2.9,60,0.00,,,0.00,WUHU216HW,2013-11-29 21:51:00,
2013-11-29 16:56:00,69.5,55.1,30.27,East,90,0.0,2.9,60,0.00,,,0.00,WUHU216HW,2013-11-29 21:56:00,
2013-11-29 17:01:00,69.3,54.9,30.27,NNE,23,0.0,0.9,60,0.00,,,0.00,WUHU216HW,2013-11-29 22:01:00,
2013-11-29 17:06:00,69.1,55.2,30.27,NNE,23,0.2,1.1,61,0.00,,,0.00,WUHU216HW,2013-11-29 22:06:00,
2013-11-29 17:11:00,68.9,55.4,30.28,East,90,0.0,1.1,62,0.00,,,0.00,WUHU216HW,2013-11-29 22:11:00,
2013-11-29 17:16:00,68.8,55.2,30.27,NNW,338,1.1,1.1,62,0.00,,,0.00,WUHU216HW,2013-11-29 22:16:00,
2013-11-29 17:21:00,68.6,55.4,30.27,North,0,0.0,1.6,63,0.00,,,0.00,WUHU216HW,2013-11-29 22:21:00,
2013-11-29 17:26:00,68.4,55.3,30.27,ENE,68,0.4,1.6,63,0.00,,,0.00,WUHU216HW,2013-11-29 22:26:00,
2013-11-29 17:31:00,68.2,55.5,30.28,SE,135,0.7,2.5,64,0.00,,,0.00,WUHU216HW,2013-11-29 22:31:00,
2013-11-29 17:36:00,68.0,55.4,30.28,NE,45,0.0,2.5,64,0.00,,,0.00,WUHU216HW,2013-11-29 22:36:00,
2013-11-29 17:41:00,67.9,55.6,30.28,NNE,23,0.0,0.9,65,0.00,,,0.00,WUHU216HW,2013-11-29 22:41:00,
2013-11-29 17:46:00,67.7,55.4,30.28,East,90,1.1,1.1,65,0.00,,,0.00,WUHU216HW,2013-11-29 22:46:00,
2013-11-29 17:51:00,67.5,55.7,30.28,ESE,113,0.4,2.0,66,0.00,,,0.00,WUHU216HW,2013-11-29 22:51:00,
2013-11-29 17:56:00,67.3,55.5,30.28,North,0,0.0,2.0,66,0.00,,,0.00,WUHU216HW,2013-11-29 22:56:00,
2013-11-29 18:01:00,67.1,55.8,30.28,NNE,23,0.9,1.6,67,0.00,,,0.00,WUHU216HW,2013-11-29 23:01:00,
2013-11-29 18:06:00,67.0,55.6,30.28,NE,45,0.0,0.9,67,0.00,,,0.00,WUHU216HW,2013-11-29 23:06:00,
2013-11-29 18:11:00,66.8,55.4,30.28,North,0,0.0,0.9,67,0.00,,,0.00,WUHU216HW,2013-11-29 23:11:00,
2013-11-29 18:17:00,66.6,55.7,30.29,NNW,338,0.2,2.2,68,0.00,,,0.00,WUHU216HW,2013-11-29 23:17:00,
2013-11-29 18:22:00,66.6,55.7,30.29,ENE,68,0.0,2.2,68,0.00,,,0.00,WUHU216HW,2013-11-29 23:22:00,
2013-11-29 18:27:00,66.4,55.9,30.29,North,0,0.0,1.1,69,0.00,,,0.00,WUHU216HW,2013-11-29 23:27:00,
2013-11-29 18:32:00,66.4,55.9,30.29,NNW,338,0.0,0.4,69,0.00,,,0.00,WUHU216HW,2013-11-29 23:32:00,
2013-11-29 18:37:00,66.2,55.7,30.29,NNE,23,0.0,0.7,69,0.00,,,0.00,WUHU216HW,2013-11-29 23:37:00,
2013-11-29 18:42:00,66.1,56.0,30.29,NE,45,0.9,0.9,70,0.00,,,0.00,WUHU216HW,2013-11-29 23:42:00,
2013-11-29 18:47:00,65.9,55.8,30.29,ENE,68,0.0,1.1,70,0.00,,,0.00,WUHU216HW,2013-11-29 23:47:00,
2013-11-29 18:52:00,65.9,55.8,30.29,NNE,23,1.1,1.1,70,0.00,,,0.00,WUHU216HW,2013-11-29 23:52:00,
2013-11-29 18:57:00,65.9,55.8,30.30,North,0,0.0,2.0,70,0.00,,,0.00,WUHU216HW,2013-11-29 23:57:00,
2013-11-29 19:02:00,65.9,55.8,30.30,NNE,23,0.0,2.0,70,0.00,,,0.00,WUHU216HW,2013-11-30 00:02:00,
2013-11-29 19:07:00,65.7,56.1,30.30,ENE,68,0.2,1.1,71,0.00,,,0.00,WUHU216HW,2013-11-30 00:07:00,
2013-11-29 19:12:00,65.5,55.9,30.30,SE,135,0.2,1.3,71,0.00,,,0.00,WUHU216HW,2013-11-30 00:12:00,
2013-11-29 19:17:00,65.5,55.9,30.30,NE,45,0.0,1.3,71,0.00,,,0.00,WUHU216HW,2013-11-30 00:17:00,
2013-11-29 19:22:00,65.5,56.3,30.30,NNE,23,2.0,2.0,72,0.00,,,0.00,WUHU216HW,2013-11-30 00:22:00,
2013-11-29 19:27:00,65.3,56.1,30.31,ENE,68,1.1,2.0,72,0.00,,,0.00,WUHU216HW,2013-11-30 00:27:00,
2013-11-29 19:32:00,65.2,55.9,30.31,NE,45,0.7,2.0,72,0.00,,,0.00,WUHU216HW,2013-11-30 00:32:00,
2013-11-29 19:37:00,65.2,55.9,30.31,South,180,0.0,1.1,72,0.00,,,0.00,WUHU216HW,2013-11-30 00:37:00,
2013-11-29 19:42:00,65.0,56.2,30.31,ENE,68,1.1,1.3,73,0.00,,,0.00,WUHU216HW,2013-11-30 00:42:00,
2013-11-29 19:47:00,64.8,55.6,30.30,East,90,0.2,1.3,72,0.00,,,0.00,WUHU216HW,2013-11-30 00:47:00,
2013-11-29 19:52:00,64.8,56.0,30.31,NNE,23,0.2,1.6,73,0.00,,,0.00,WUHU216HW,2013-11-30 00:52:00,
2013-11-29 19:57:00,64.8,56.0,30.31,North,0,0.4,1.8,73,0.00,,,0.00,WUHU216HW,2013-11-30 00:57:00,
2013-11-29 20:02:00,64.6,55.8,30.31,East,90,0.2,1.8,73,0.00,,,0.00,WUHU216HW,2013-11-30 01:02:00,
2013-11-29 20:07:00,64.4,55.6,30.31,NNW,338,0.2,2.5,73,0.00,,,0.00,WUHU216HW,2013-11-30 01:07:00,
2013-11-29 20:12:00,64.4,55.3,30.31,NE,45,0.4,2.5,72,0.00,,,0.00,WUHU216HW,2013-11-30 01:12:00,
2013-11-29 20:17:00,64.3,55.1,30.32,North,0,0.0,1.8,72,0.00,,,0.00,WUHU216HW,2013-11-30 01:17:00,
2013-11-29 20:22:00,64.3,55.4,30.32,North,0,0.0,1.8,73,0.00,,,0.00,WUHU216HW,2013-11-30 01:22:00,
2013-11-29 20:27:00,64.1,55.3,30.32,NNE,23,0.2,1.1,73,0.00,,,0.00,WUHU216HW,2013-11-30 01:27:00,
2013-11-29 20:32:00,63.9,55.1,30.32,NNW,338,0.0,1.1,73,0.00,,,0.00,WUHU216HW,2013-11-30 01:32:00,
2013-11-29 20:37:00,63.9,55.1,30.33,NNE,23,0.4,1.3,73,0.00,,,0.00,WUHU216HW,2013-11-30 01:37:00,
2013-11-29 20:42:00,63.7,54.5,30.33,NNE,23,0.9,1.8,72,0.00,,,0.00,WUHU216HW,2013-11-30 01:42:00,
2013-11-29 20:47:00,63.5,54.4,30.33,NNE,23,1.1,1.8,72,0.00,,,0.00,WUHU216HW,2013-11-30 01:47:00,
2013-11-29 20:52:00,63.4,53.8,30.33,SW,225,0.4,1.3,71,0.00,,,0.00,WUHU216HW,2013-11-30 01:52:00,
2013-11-29 20:57:00,63.2,53.6,30.33,ENE,68,0.2,2.5,71,0.00,,,0.00,WUHU216HW,2013-11-30 01:57:00,
2013-11-29 21:02:00,63.0,53.1,30.33,NW,315,0.0,2.5,70,0.00,,,0.00,WUHU216HW,2013-11-30 02:02:00,
2013-11-29 21:07:00,63.0,53.1,30.33,NNE,23,0.4,2.2,70,0.00,,,0.00,WUHU216HW,2013-11-30 02:07:00,
2013-11-29 21:12:00,63.0,53.5,30.33,NNW,338,0.0,2.5,71,0.00,,,0.00,WUHU216HW,2013-11-30 02:12:00,
2013-11-29 21:17:00,63.0,53.5,30.34,East,90,1.1,2.5,71,0.00,,,0.00,WUHU216HW,2013-11-30 02:17:00,
2013-11-29 21:22:00,62.8,53.3,30.34,NNW,338,0.0,1.1,71,0.00,,,0.00,WUHU216HW,2013-11-30 02:22:00,
2013-11-29 21:27:00,62.6,53.1,30.34,NE,45,0.4,1.1,71,0.00,,,0.00,WUHU216HW,2013-11-30 02:27:00,
2013-11-29 21:32:00,62.5,52.9,30.34,NNW,338,0.7,1.1,71,0.00,,,0.00,WUHU216HW,2013-11-30 02:32:00,
2013-11-29 21:37:00,62.5,52.6,30.34,NNW,338,0.0,2.0,70,0.00,,,0.00,WUHU216HW,2013-11-30 02:37:00,
2013-11-29 21:42:00,62.3,52.4,30.34,North,0,0.0,2.0,70,0.00,,,0.00,WUHU216HW,2013-11-30 02:42:00,
2013-11-29 21:47:00,62.1,52.3,30.34,NNW,338,0.4,1.6,70,0.00,,,0.00,WUHU216HW,2013-11-30 02:47:00,
2013-11-29 21:52:00,61.9,51.7,30.34,North,0,0.0,1.6,69,0.00,,,0.00,WUHU216HW,2013-11-30 02:52:00,
2013-11-29 21:57:00,61.7,51.5,30.34,NNE,23,0.0,0.9,69,0.00,,,0.00,WUHU216HW,2013-11-30 02:57:00,
2013-11-29 22:02:00,61.6,51.4,30.34,SSE,158,0.7,1.1,69,0.00,,,0.00,WUHU216HW,2013-11-30 03:02:00,
2013-11-29 22:07:00,61.6,51.4,30.34,NNE,23,0.0,1.1,69,0.00,,,0.00,WUHU216HW,2013-11-30 03:07:00,
2013-11-29 22:12:00,61.6,51.4,30.34,South,180,0.7,0.9,69,0.00,,,0.00,WUHU216HW,2013-11-30 03:12:00,
2013-11-29 22:17:00,61.4,51.2,30.33,North,0,0.2,1.8,69,0.00,,,0.00,WUHU216HW,2013-11-30 03:17:00,
2013-11-29 22:22:00,61.2,51.0,30.33,North,0,0.0,1.8,69,0.00,,,0.00,WUHU216HW,2013-11-30 03:22:00,
2013-11-29 22:27:00,61.2,51.0,30.34,North,0,0.4,1.1,69,0.00,,,0.00,WUHU216HW,2013-11-30 03:27:00,
2013-11-29 22:32:00,61.0,50.9,30.34,NW,315,0.0,1.1,69,0.00,,,0.00,WUHU216HW,2013-11-30 03:32:00,
2013-11-29 22:37:00,61.0,50.9,30.34,North,0,0.4,0.9,69,0.00,,,0.00,WUHU216HW,2013-11-30 03:37:00,
2013-11-29 22:42:00,60.8,50.7,30.34,NNE,23,0.2,0.7,69,0.00,,,0.00,WUHU216HW,2013-11-30 03:42:00,
2013-11-29 22:47:00,60.8,50.7,30.34,NNW,338,0.2,1.3,69,0.00,,,0.00,WUHU216HW,2013-11-30 03:47:00,
2013-11-29 22:52:00,60.8,50.7,30.33,NNE,23,0.0,1.3,69,0.00,,,0.00,WUHU216HW,2013-11-30 03:52:00,
2013-11-29 22:57:00,60.7,50.5,30.33,North,0,0.0,1.3,69,0.00,,,0.00,WUHU216HW,2013-11-30 03:57:00,
2013-11-29 23:02:00,60.5,50.8,30.34,NNW,338,0.2,1.8,70,0.00,,,0.00,WUHU216HW,2013-11-30 04:02:00,
2013-11-29 23:07:00,60.3,50.6,30.33,NNE,23,0.0,1.8,70,0.00,,,0.00,WUHU216HW,2013-11-30 04:07:00,
2013-11-29 23:12:00,60.3,50.6,30.33,North,0,0.4,1.1,70,0.00,,,0.00,WUHU216HW,2013-11-30 04:12:00,
2013-11-29 23:17:00,60.1,50.4,30.33,ESE,113,0.9,1.1,70,0.00,,,0.00,WUHU216HW,2013-11-30 04:17:00,
2013-11-29 23:22:00,60.1,50.4,30.33,NNW,338,0.2,0.9,70,0.00,,,0.00,WUHU216HW,2013-11-30 04:22:00,
2013-11-29 23:27:00,60.1,50.4,30.33,East,90,0.9,1.1,70,0.00,,,0.00,WUHU216HW,2013-11-30 04:27:00,
2013-11-29 23:32:00,59.9,50.2,30.33,NNW,338,0.9,2.0,70,0.00,,,0.00,WUHU216HW,2013-11-30 04:32:00,
2013-11-29 23:37:00,59.9,50.2,30.33,NE,45,0.0,2.2,70,0.00,,,0.00,WUHU216HW,2013-11-30 04:37:00,
2013-11-29 23:42:00,59.8,50.0,30.33,NNW,338,0.0,2.2,70,0.00,,,0.00,WUHU216HW,2013-11-30 04:42:00,
2013-11-29 23:47:00,59.8,50.0,30.32,North,0,0.0,2.0,70,0.00,,,0.00,WUHU216HW,2013-11-30 04:47:00,
2013-11-29 23:52:00,59.6,49.9,30.33,North,0,0.4,1.1,70,0.00,,,0.00,WUHU216HW,2013-11-30 04:52:00,
2013-11-29 23:57:00,59.6,50.2,30.33,NNE,23,0.4,1.1,71,0.00,,,0.00,WUHU216HW,2013-11-30 04:57:00,